FLOCK 3P-88 (41982 NORAD) Tracking and Keplerian Element Data

This shows tracking and keplerian element data for the satellite.

Feedback or suggestion? Click here.




ElementValue
Catalog41982
NameFLOCK 3P-88
Epoch Orbit17629
Epoch Day115.13859634
Epoch Year2020
RAAN184.6816
Inclination97.3712
Eccentricity0.0009218
Argument of Perigee119.7559
Mean Anonmoly240.4599
Mean Motion15.27558284
Decay Rate2.753E-05
L11 41982U 17008AL 20115.13859634 .00002753 00000-0 10481-3 0 9992
L22 41982 97.3712 184.6816 0009218 119.7559 240.4599 15.27558284176291



Live tracking and technical data element details for FLOCK 3P-88 (NORAD 41982). FLOCK 3P-88 can be tracked NOW for your location showing map with azimuth and elevation plus other details from your city location.







IsCatalogInMostPopularTable: catalog: 41982, numindb: 527
Update: records affected: 1



GetName: 41982 FLOCK 3P-88

Hit Count: updated at: Mon, 18 May 2026 09:24:26 GMT